| time (UTC) | temp F | wind direction | speed MPH | gust MPH | rain 1hr in | rain 24hr in | rain mn in | humidity % | barometer mb |
| 20260905091523 | 59 | 67 | 0.0 | 3.0 | 0.00 | 0.00 | 0.00 | 94 | 1010.4 |
| 20260905091013 | 59 | 67 | 0.0 | 3.0 | 0.00 | 0.00 | 0.00 | 94 | 1010.4 |
| 20260905090512 | 59 | 41 | 2.0 | 3.0 | 0.00 | 0.00 | 0.00 | 94 | 1010.3 |
| 20260905090030 | 59 | 309 | 1.0 | 3.0 | 0.00 | 0.00 | 0.00 | 94 | 1010.4 |
| 20260905085515 | 59 | 51 | 0.0 | 4.0 | 0.00 | 0.00 | 0.00 | 94 | 1010.3 |
| 20260905085018 | 59 | 319 | 1.0 | 7.0 | 0.00 | 0.00 | 0.00 | 94 | 1010.3 |
| 20260905084531 | 59 | 341 | 2.0 | 7.0 | 0.00 | 0.00 | 0.00 | 95 | 1010.4 |
| 20260905084015 | 59 | 55 | 2.0 | 5.0 | 0.00 | 0.00 | 0.00 | 95 | 1010.4 |
| 20260905083508 | 59 | 178 | 0.0 | 3.0 | 0.00 | 0.00 | 0.00 | 94 | 1010.4 |
| 20260905083016 | 59 | 9 | 1.0 | 4.0 | 0.00 | 0.00 | 0.00 | 94 | 1010.4 |
| 20260905082508 | 59 | 9 | 1.0 | 4.0 | 0.00 | 0.00 | 0.00 | 94 | 1010.4 |
| 20260905082008 | 59 | 9 | 2.0 | 3.0 | 0.00 | 0.00 | 0.00 | 94 | 1010.4 |
| 20260905081523 | 59 | 9 | 0.0 | 3.0 | 0.00 | 0.00 | 0.00 | 94 | 1010.4 |
| 20260905081012 | 59 | 325 | 1.0 | 3.0 | 0.00 | 0.00 | 0.00 | 94 | 1010.4 |
| 20260905080512 | 59 | 298 | 0.0 | 3.0 | 0.00 | 0.00 | 0.00 | 94 | 1010.4 |
| 20260905075515 | 59 | 137 | 1.0 | 5.0 | 0.00 | 0.00 | 0.00 | 94 | 1010.4 |
| 20260905075015 | 59 | 232 | 4.0 | 5.0 | 0.00 | 0.00 | 0.00 | 94 | 1010.4 |
| 20260905074531 | 59 | 255 | 2.0 | 4.0 | 0.00 | 0.00 | 0.00 | 95 | 1010.4 |
| 20260905074016 | 59 | 250 | 0.0 | 4.0 | 0.00 | 0.00 | 0.00 | 95 | 1010.5 |
| 20260905073517 | 59 | 330 | 0.0 | 3.0 | 0.00 | 0.00 | 0.00 | 94 | 1010.5 |
| 20260905073032 | 59 | 9 | 1.0 | 3.0 | 0.00 | 0.00 | 0.00 | 94 | 1010.5 |
| 20260905072518 | 59 | 9 | 1.0 | 3.0 | 0.00 | 0.00 | 0.00 | 94 | 1010.6 |
| 20260905072009 | 59 | 26 | 2.0 | 3.0 | 0.00 | 0.00 | 0.00 | 94 | 1010.6 |
| 20260905071521 | 59 | 57 | 1.0 | 4.0 | 0.00 | 0.00 | 0.00 | 94 | 1010.6 |
| 20260905071007 | 59 | 67 | 2.0 | 4.0 | 0.00 | 0.00 | 0.00 | 94 | 1010.7 |
| 20260905070513 | 59 | 9 | 0.0 | 3.0 | 0.00 | 0.00 | 0.00 | 94 | 1010.7 |
| 20260905070031 | 59 | 265 | 1.0 | 3.0 | 0.00 | 0.00 | 0.00 | 94 | 1010.6 |
| 20260905065504 | 59 | 221 | 1.0 | 3.0 | 0.00 | 0.00 | 0.00 | 94 | 1010.7 |
| 20260905065006 | 59 | 51 | 0.0 | 3.0 | 0.00 | 0.00 | 0.00 | 94 | 1010.7 |
| 20260905064504 | 59 | 51 | 0.0 | 3.0 | 0.00 | 0.00 | 0.00 | 94 | 1010.7 |
| 20260905064004 | 59 | 279 | 1.0 | 3.0 | 0.00 | 0.00 | 0.00 | 94 | 1010.7 |
| 20260905063507 | 59 | 238 | 0.0 | 2.0 | 0.00 | 0.00 | 0.00 | 94 | 1010.8 |
| 20260905063032 | 60 | 265 | 0.0 | 2.0 | 0.00 | 0.00 | 0.00 | 94 | 1010.9 |
| 20260905062506 | 60 | 51 | 0.0 | 2.0 | 0.00 | 0.00 | 0.00 | 94 | 1010.9 |
| 20260905062016 | 60 | 250 | 0.0 | 3.0 | 0.00 | 0.00 | 0.00 | 94 | 1010.9 |
| 20260905061515 | 60 | 238 | 1.0 | 4.0 | 0.00 | 0.00 | 0.00 | 94 | 1010.9 |
| 20260905061012 | 60 | 255 | 1.0 | 4.0 | 0.00 | 0.00 | 0.00 | 94 | 1011.0 |
| 20260905060518 | 60 | 250 | 1.0 | 4.0 | 0.00 | 0.00 | 0.00 | 94 | 1010.9 |
| 20260905060045 | 61 | 319 | 2.0 | 5.0 | 0.00 | 0.00 | 0.00 | 94 | 1011.0 |
| 20260905055519 | 61 | 178 | 1.0 | 5.0 | 0.00 | 0.00 | 0.00 | 94 | 1010.9 |
| 20260905055016 | 61 | 207 | 2.0 | 11.0 | 0.00 | 0.00 | 0.00 | 94 | 1010.9 |
| 20260905054531 | 61 | 232 | 5.0 | 12.0 | 0.00 | 0.00 | 0.00 | 94 | 1010.8 |
| 20260905054004 | 61 | 194 | 6.0 | 12.0 | 0.00 | 0.00 | 0.00 | 94 | 1010.8 |
| 20260905053504 | 61 | 93 | 1.0 | 7.0 | 0.00 | 0.00 | 0.00 | 94 | 1010.8 |
| 20260905053006 | 61 | 221 | 2.0 | 7.0 | 0.00 | 0.00 | 0.00 | 94 | 1010.9 |
| 20260905052505 | 62 | 212 | 2.0 | 6.0 | 0.00 | 0.00 | 0.00 | 94 | 1011.0 |
| 20260905052007 | 61 | 178 | 2.0 | 6.0 | 0.00 | 0.00 | 0.00 | 94 | 1011.0 |
| 20260905051514 | 62 | 198 | 3.0 | 6.0 | 0.00 | 0.00 | 0.00 | 94 | 1011.0 |
| 20260905051014 | 61 | 209 | 2.0 | 6.0 | 0.00 | 0.00 | 0.00 | 94 | 1011.2 |
| 20260905050506 | 61 | 210 | 2.0 | 5.0 | 0.00 | 0.00 | 0.00 | 94 | 1011.2 |
| 20260905050019 | 61 | 165 | 1.0 | 6.0 | 0.00 | 0.00 | 0.00 | 94 | 1011.2 |
| 20260905045510 | 61 | 178 | 3.0 | 6.0 | 0.00 | 0.00 | 0.00 | 94 | 1011.3 |
| 20260905045012 | 61 | 153 | 2.0 | 4.0 | 0.00 | 0.00 | 0.00 | 94 | 1011.1 |
| 20260905044532 | 61 | 214 | 3.0 | 4.0 | 0.00 | 0.00 | 0.00 | 94 | 1011.1 |
| 20260905044014 | 61 | 227 | 2.0 | 4.0 | 0.00 | 0.00 | 0.00 | 94 | 1011.1 |
| 20260905043513 | 61 | 298 | 0.0 | 2.0 | 0.00 | 0.00 | 0.00 | 94 | 1011.3 |
| 20260905043028 | 61 | 51 | 0.0 | 2.0 | 0.00 | 0.00 | 0.00 | 94 | 1011.1 |
| 20260905042504 | 61 | 221 | 0.0 | 3.0 | 0.00 | 0.00 | 0.00 | 94 | 1011.1 |
| 20260905042005 | 61 | 178 | 0.0 | 3.0 | 0.00 | 0.00 | 0.00 | 94 | 1011.0 |
| 20260905041509 | 61 | 238 | 1.0 | 2.0 | 0.00 | 0.00 | 0.00 | 94 | 1011.0 |
| 20260905041016 | 61 | 51 | 1.0 | 2.0 | 0.00 | 0.00 | 0.00 | 94 | 1010.9 |
| 20260905040506 | 61 | 41 | 0.0 | 2.0 | 0.00 | 0.00 | 0.00 | 93 | 1010.9 |
| 20260905040015 | 61 | 309 | 0.0 | 3.0 | 0.00 | 0.00 | 0.00 | 93 | 1011.0 |
| 20260905035509 | 61 | 265 | 1.0 | 3.0 | 0.00 | 0.00 | 0.00 | 94 | 1011.0 |
| 20260905035015 | 61 | 221 | 1.0 | 3.0 | 0.00 | 0.00 | 0.00 | 93 | 1011.1 |
| 20260905034522 | 61 | 265 | 0.0 | 4.0 | 0.00 | 0.00 | 0.00 | 93 | 1011.1 |
| 20260905034009 | 61 | 201 | 2.0 | 4.0 | 0.00 | 0.00 | 0.00 | 93 | 1011.1 |
| 20260905033514 | 61 | 200 | 1.0 | 3.0 | 0.00 | 0.00 | 0.00 | 93 | 1011.1 |
| 20260905033026 | 61 | 190 | 1.0 | 3.0 | 0.00 | 0.00 | 0.00 | 93 | 1011.1 |
| 20260905032515 | 61 | 205 | 1.0 | 3.0 | 0.00 | 0.00 | 0.00 | 93 | 1011.1 |
| 20260905032014 | 61 | 200 | 1.0 | 3.0 | 0.00 | 0.00 | 0.00 | 93 | 1011.1 |
| 20260905031537 | 61 | 257 | 1.0 | 3.0 | 0.00 | 0.00 | 0.00 | 93 | 1011.1 |
| 20260905031003 | 61 | 238 | 1.0 | 2.0 | 0.00 | 0.00 | 0.00 | 93 | 1011.0 |
| 20260905030506 | 61 | 232 | 0.0 | 2.0 | 0.00 | 0.00 | 0.00 | 93 | 1010.9 |
| 20260905030014 | 62 | 282 | 1.0 | 3.0 | 0.00 | 0.00 | 0.00 | 93 | 1011.0 |
| 20260905025506 | 62 | 9 | 1.0 | 3.0 | 0.00 | 0.00 | 0.00 | 93 | 1011.0 |
| 20260905025019 | 62 | 22 | 1.0 | 2.0 | 0.00 | 0.00 | 0.00 | 93 | 1011.0 |
| 20260905024519 | 62 | 137 | 0.0 | 3.0 | 0.00 | 0.00 | 0.00 | 92 | 1011.0 |
| 20260905024019 | 62 | 238 | 1.0 | 3.0 | 0.00 | 0.00 | 0.00 | 92 | 1011.0 |
| 20260905023518 | 62 | 221 | 1.0 | 3.0 | 0.00 | 0.00 | 0.00 | 92 | 1011.1 |
| 20260905023024 | 62 | 265 | 1.0 | 3.0 | 0.00 | 0.00 | 0.00 | 92 | 1011.1 |
| 20260905022517 | 63 | 265 | 1.0 | 3.0 | 0.00 | 0.00 | 0.00 | 92 | 1011.1 |
| 20260905022021 | 63 | 221 | 1.0 | 3.0 | 0.00 | 0.00 | 0.00 | 92 | 1011.2 |
| 20260905021543 | 63 | 212 | 1.0 | 3.0 | 0.00 | 0.00 | 0.00 | 92 | 1011.2 |
| 20260905021015 | 63 | 205 | 1.0 | 2.0 | 0.00 | 0.00 | 0.00 | 92 | 1011.2 |
| 20260905020517 | 63 | 178 | 1.0 | 3.0 | 0.00 | 0.00 | 0.00 | 92 | 1011.2 |
| 20260905020031 | 63 | 279 | 0.0 | 3.0 | 0.00 | 0.00 | 0.00 | 91 | 1011.3 |
| 20260905015516 | 63 | 309 | 0.0 | 2.0 | 0.00 | 0.00 | 0.00 | 91 | 1011.3 |
| 20260905015012 | 63 | 282 | 0.0 | 2.0 | 0.00 | 0.00 | 0.00 | 91 | 1011.2 |
| 20260905014514 | 63 | 334 | 0.0 | 3.0 | 0.00 | 0.00 | 0.00 | 91 | 1011.3 |
| 20260905014008 | 63 | 334 | 0.0 | 4.0 | 0.00 | 0.00 | 0.00 | 91 | 1011.3 |
| 20260905013511 | 64 | 221 | 0.0 | 4.0 | 0.00 | 0.00 | 0.00 | 90 | 1011.3 |
| 20260905013018 | 64 | 93 | 1.0 | 3.0 | 0.00 | 0.00 | 0.00 | 90 | 1011.3 |
| 20260905012512 | 64 | 153 | 1.0 | 4.0 | 0.00 | 0.00 | 0.00 | 90 | 1011.3 |
| 20260905012012 | 64 | 229 | 2.0 | 4.0 | 0.00 | 0.00 | 0.00 | 90 | 1011.3 |
| 20260905011525 | 65 | 257 | 2.0 | 4.0 | 0.00 | 0.00 | 0.00 | 90 | 1011.3 |
| 20260905011012 | 65 | 298 | 1.0 | 3.0 | 0.00 | 0.00 | 0.00 | 90 | 1011.2 |
| 20260905010515 | 65 | 250 | 1.0 | 3.0 | 0.00 | 0.00 | 0.00 | 90 | 1011.2 |
| 20260905010032 | 65 | 178 | 0.0 | 3.0 | 0.00 | 0.00 | 0.00 | 89 | 1011.2 |
| 20260905005516 | 65 | 227 | 1.0 | 3.0 | 0.00 | 0.00 | 0.00 | 88 | 1011.2 |
| 20260905005016 | 65 | 51 | 0.0 | 4.0 | 0.00 | 0.00 | 0.00 | 88 | 1011.1 |
| 20260905004535 | 65 | 325 | 2.0 | 4.0 | 0.00 | 0.00 | 0.00 | 88 | 1011.1 |
| 20260905004017 | 66 | 61 | 1.0 | 3.0 | 0.00 | 0.00 | 0.00 | 88 | 1011.1 |
| 20260905003513 | 66 | 80 | 1.0 | 3.0 | 0.00 | 0.00 | 0.00 | 87 | 1011.1 |
| 20260905003004 | 66 | 34 | 1.0 | 3.0 | 0.00 | 0.00 | 0.00 | 86 | 1011.1 |
| 20260905002503 | 67 | 19 | 1.0 | 2.0 | 0.00 | 0.00 | 0.00 | 86 | 1011.2 |
| 20260905002003 | 67 | 325 | 0.0 | 3.0 | 0.00 | 0.00 | 0.00 | 86 | 1011.2 |
| 20260905001503 | 68 | 309 | 0.0 | 3.0 | 0.00 | 0.00 | 0.00 | 85 | 1011.1 |
| 20260905001003 | 68 | 282 | 1.0 | 4.0 | 0.00 | 0.00 | 0.00 | 85 | 1011.0 |
| 20260905000504 | 68 | 338 | 2.0 | 4.0 | 0.00 | 0.00 | 0.00 | 85 | 1011.0 |
| 20260905000006 | 68 | 51 | 0.0 | 4.0 | 0.00 | 0.00 | 0.00 | 84 | 1010.9 |
| 20260904235503 | 68 | 51 | 1.0 | 5.0 | 0.00 | 0.00 | 0.00 | 83 | 1010.9 |
| 20260904235002 | 69 | 44 | 1.0 | 5.0 | 0.00 | 0.00 | 0.00 | 84 | 1010.8 |
| 20260904234506 | 68 | 26 | 2.0 | 5.0 | 0.00 | 0.00 | 0.00 | 85 | 1010.7 |
| 20260904234003 | 69 | 65 | 2.0 | 4.0 | 0.00 | 0.00 | 0.00 | 85 | 1010.7 |
| 20260904233503 | 69 | 61 | 1.0 | 3.0 | 0.00 | 0.00 | 0.00 | 85 | 1010.6 |
| 20260904233011 | 69 | 9 | 0.0 | 3.0 | 0.00 | 0.00 | 0.00 | 84 | 1010.5 |
| 20260904232505 | 70 | 83 | 0.0 | 2.0 | 0.00 | 0.00 | 0.00 | 83 | 1010.4 |
| 20260904232003 | 71 | 232 | 1.0 | 2.0 | 0.00 | 0.00 | 0.00 | 82 | 1010.4 |
| 20260904231510 | 70 | 247 | 0.0 | 2.0 | 0.00 | 0.00 | 0.00 | 77 | 1010.5 |
| 20260904231004 | 71 | 221 | 0.0 | 4.0 | 0.00 | 0.00 | 0.00 | 77 | 1010.4 |
| 20260904230504 | 71 | 247 | 0.0 | 4.0 | 0.00 | 0.00 | 0.00 | 77 | 1010.4 |
| 20260904230005 | 71 | 342 | 1.0 | 3.0 | 0.00 | 0.00 | 0.00 | 77 | 1010.4 |
| 20260904225505 | 71 | 254 | 1.0 | 3.0 | 0.00 | 0.00 | 0.00 | 78 | 1010.4 |
| 20260904225001 | 72 | 291 | 1.0 | 4.0 | 0.00 | 0.00 | 0.00 | 77 | 1010.3 |
| 20260904224507 | 72 | 309 | 2.0 | 4.0 | 0.00 | 0.00 | 0.00 | 76 | 1010.2 |
| 20260904224002 | 73 | 313 | 2.0 | 4.0 | 0.00 | 0.00 | 0.00 | 75 | 1010.3 |
| 20260904223503 | 73 | 313 | 2.0 | 4.0 | 0.00 | 0.00 | 0.00 | 75 | 1010.2 |
| 20260904223009 | 73 | 334 | 2.0 | 4.0 | 0.00 | 0.00 | 0.00 | 75 | 1010.2 |
| 20260904222503 | 73 | 338 | 2.0 | 7.0 | 0.00 | 0.00 | 0.00 | 75 | 1010.2 |
| 20260904222003 | 73 | 43 | 3.0 | 7.0 | 0.00 | 0.00 | 0.00 | 73 | 1010.1 |
| 20260904221507 | 73 | 9 | 2.0 | 6.0 | 0.00 | 0.00 | 0.00 | 73 | 1010.1 |
| 20260904221003 | 74 | 9 | 2.0 | 4.0 | 0.00 | 0.00 | 0.00 | 72 | 1010.1 |
| 20260904220504 | 74 | 338 | 1.0 | 4.0 | 0.00 | 0.00 | 0.00 | 72 | 1010.1 |
| 20260904220013 | 74 | 325 | 1.0 | 5.0 | 0.00 | 0.00 | 0.00 | 71 | 1010.1 |
| 20260904215507 | 75 | 330 | 2.0 | 5.0 | 0.00 | 0.00 | 0.00 | 70 | 1010.2 |
| 20260904215006 | 75 | 341 | 2.0 | 5.0 | 0.00 | 0.00 | 0.00 | 70 | 1010.2 |
| 20260904214506 | 75 | 9 | 2.0 | 4.0 | 0.00 | 0.00 | 0.00 | 69 | 1010.2 |
| 20260904214004 | 75 | 342 | 2.0 | 8.0 | 0.00 | 0.00 | 0.00 | 68 | 1010.2 |
| 20260904213506 | 75 | 43 | 3.0 | 9.0 | 0.00 | 0.00 | 0.00 | 69 | 1010.3 |
| 20260904213010 | 76 | 22 | 4.0 | 9.0 | 0.00 | 0.00 | 0.00 | 66 | 1010.3 |
| 20260904212509 | 76 | 11 | 5.0 | 13.0 | 0.00 | 0.00 | 0.00 | 64 | 1010.2 |
| 20260904212005 | 77 | 45 | 6.0 | 13.0 | 0.00 | 0.00 | 0.00 | 63 | 1010.2 |
| 20260904211515 | 77 | 48 | 4.0 | 17.0 | 0.00 | 0.00 | 0.00 | 62 | 1010.2 |
| 20260904211006 | 78 | 340 | 5.0 | 17.0 | 0.00 | 0.00 | 0.00 | 58 | 1010.2 |
| 20260904210507 | 78 | 28 | 5.0 | 17.0 | 0.00 | 0.00 | 0.00 | 61 | 1010.2 |
| 20260904210016 | 78 | 83 | 4.0 | 12.0 | 0.00 | 0.00 | 0.00 | 59 | 1010.1 |
| 20260904205509 | 78 | 13 | 6.0 | 14.0 | 0.00 | 0.00 | 0.00 | 57 | 1010.1 |
| 20260904205006 | 79 | 347 | 5.0 | 16.0 | 0.00 | 0.00 | 0.00 | 57 | 1010.1 |
| 20260904204516 | 79 | 36 | 8.0 | 17.0 | 0.00 | 0.00 | 0.00 | 57 | 1010.1 |
| 20260904203506 | 79 | 22 | 5.0 | 12.0 | 0.00 | 0.00 | 0.00 | 58 | 1010.0 |
| 20260904203016 | 79 | 333 | 2.0 | 14.0 | 0.00 | 0.00 | 0.00 | 57 | 1009.9 |
| 20260904202504 | 79 | 9 | 7.0 | 14.0 | 0.00 | 0.00 | 0.00 | 55 | 1010.0 |
| 20260904202005 | 78 | 22 | 5.0 | 11.0 | 0.00 | 0.00 | 0.00 | 57 | 1010.0 |
| 20260904201513 | 78 | 41 | 3.0 | 14.0 | 0.00 | 0.00 | 0.00 | 58 | 1010.0 |
| 20260904201007 | 79 | 50 | 7.0 | 13.0 | 0.00 | 0.00 | 0.00 | 58 | 1009.9 |
| 20260904200509 | 78 | 57 | 4.0 | 8.0 | 0.00 | 0.00 | 0.00 | 59 | 1009.9 |
| 20260904200023 | 78 | 47 | 3.0 | 8.0 | 0.00 | 0.00 | 0.00 | 61 | 1010.0 |
| 20260904195513 | 78 | 26 | 1.0 | 8.0 | 0.00 | 0.00 | 0.00 | 58 | 1010.1 |
| 20260904195006 | 78 | 291 | 3.0 | 12.0 | 0.00 | 0.00 | 0.00 | 57 | 1010.2 |
| 20260904194515 | 79 | 15 | 4.0 | 12.0 | 0.00 | 0.00 | 0.00 | 54 | 1010.4 |
| 20260904194008 | 79 | 321 | 6.0 | 17.0 | 0.00 | 0.00 | 0.00 | 55 | 1010.3 |
| 20260904193506 | 79 | 51 | 4.0 | 19.0 | 0.00 | 0.00 | 0.00 | 53 | 1010.2 |
| 20260904193021 | 81 | 43 | 11.0 | 19.0 | 0.00 | 0.00 | 0.00 | 50 | 1010.1 |
| 20260904192509 | 81 | 347 | 6.0 | 16.0 | 0.00 | 0.00 | 0.00 | 54 | 1010.2 |
| 20260904192006 | 79 | 51 | 3.0 | 15.0 | 0.00 | 0.00 | 0.00 | 54 | 1010.2 |
| 20260904191514 | 79 | 24 | 5.0 | 16.0 | 0.00 | 0.00 | 0.00 | 56 | 1010.3 |
| 20260904191006 | 80 | 347 | 9.0 | 21.0 | 0.00 | 0.00 | 0.00 | 55 | 1010.3 |
| 20260904190508 | 79 | 307 | 7.0 | 21.0 | 0.00 | 0.00 | 0.00 | 55 | 1010.3 |
| 20260904190015 | 80 | 44 | 5.0 | 21.0 | 0.00 | 0.00 | 0.00 | 55 | 1010.3 |
| 20260904185509 | 81 | 15 | 11.0 | 21.0 | 0.00 | 0.00 | 0.00 | 54 | 1010.4 |
| 20260904185006 | 82 | 29 | 10.0 | 18.0 | 0.00 | 0.00 | 0.00 | 57 | 1010.3 |
| 20260904184520 | 81 | 25 | 9.0 | 17.0 | 0.00 | 0.00 | 0.00 | 54 | 1010.2 |
| 20260904184008 | 81 | 59 | 4.0 | 17.0 | 0.00 | 0.00 | 0.00 | 56 | 1010.3 |
| 20260904183508 | 82 | 25 | 4.0 | 12.0 | 0.00 | 0.00 | 0.00 | 51 | 1010.3 |
| 20260904183017 | 82 | 41 | 5.0 | 15.0 | 0.00 | 0.00 | 0.00 | 51 | 1010.3 |
| 20260904182510 | 81 | 341 | 4.0 | 15.0 | 0.00 | 0.00 | 0.00 | 51 | 1010.3 |
| 20260904182010 | 82 | 9 | 4.0 | 15.0 | 0.00 | 0.00 | 0.00 | 52 | 1010.4 |
| 20260904181517 | 82 | 26 | 4.0 | 15.0 | 0.00 | 0.00 | 0.00 | 51 | 1010.4 |
| 20260904181009 | 82 | 34 | 8.0 | 15.0 | 0.00 | 0.00 | 0.00 | 53 | 1010.3 |
| 20260904180509 | 81 | 221 | 3.0 | 12.0 | 0.00 | 0.00 | 0.00 | 51 | 1010.4 |
| 20260904180021 | 80 | 298 | 4.0 | 12.0 | 0.00 | 0.00 | 0.00 | 55 | 1010.4 |
| 20260904175507 | 80 | 32 | 5.0 | 13.0 | 0.00 | 0.00 | 0.00 | 57 | 1010.4 |
| 20260904175005 | 80 | 9 | 5.0 | 13.0 | 0.00 | 0.00 | 0.00 | 54 | 1010.4 |
| 20260904174527 | 79 | 34 | 1.0 | 13.0 | 0.00 | 0.00 | 0.00 | 60 | 1010.4 |
| 20260904174011 | 79 | 265 | 1.0 | 9.0 | 0.00 | 0.00 | 0.00 | 56 | 1010.4 |
| 20260904173512 | 80 | 344 | 3.0 | 13.0 | 0.00 | 0.00 | 0.00 | 54 | 1010.3 |
| 20260904173024 | 81 | 59 | 4.0 | 13.0 | 0.00 | 0.00 | 0.00 | 55 | 1010.3 |
| 20260904172508 | 80 | 300 | 4.0 | 14.0 | 0.00 | 0.00 | 0.00 | 60 | 1010.3 |
| 20260904172011 | 79 | 317 | 5.0 | 15.0 | 0.00 | 0.00 | 0.00 | 56 | 1010.4 |
| 20260904171536 | 80 | 328 | 6.0 | 17.0 | 0.00 | 0.00 | 0.00 | 56 | 1010.4 |
| 20260904171010 | 80 | 17 | 4.0 | 17.0 | 0.00 | 0.00 | 0.00 | 55 | 1010.5 |
| 20260904170508 | 82 | 19 | 12.0 | 16.0 | 0.00 | 0.00 | 0.00 | 52 | 1010.5 |
| 20260904170026 | 82 | 36 | 6.0 | 16.0 | 0.00 | 0.00 | 0.00 | 58 | 1010.6 |
| 20260904165510 | 81 | 36 | 7.0 | 14.0 | 0.00 | 0.00 | 0.00 | 57 | 1010.5 |
| 20260904165010 | 80 | 321 | 7.0 | 14.0 | 0.00 | 0.00 | 0.00 | 58 | 1010.7 |
| 20260904164526 | 80 | 309 | 2.0 | 13.0 | 0.00 | 0.00 | 0.00 | 57 | 1010.7 |
| 20260904164010 | 80 | 137 | 5.0 | 20.0 | 0.00 | 0.00 | 0.00 | 56 | 1010.6 |
| 20260904163514 | 80 | 32 | 7.0 | 20.0 | 0.00 | 0.00 | 0.00 | 54 | 1010.7 |
| 20260904163023 | 80 | 15 | 5.0 | 16.0 | 0.00 | 0.00 | 0.00 | 56 | 1010.8 |
| 20260904162509 | 80 | 330 | 9.0 | 16.0 | 0.00 | 0.00 | 0.00 | 56 | 1010.9 |
| 20260904162012 | 80 | 49 | 6.0 | 21.0 | 0.00 | 0.00 | 0.00 | 56 | 1010.9 |
| 20260904161524 | 81 | 34 | 3.0 | 21.0 | 0.00 | 0.00 | 0.00 | 56 | 1010.8 |
| 20260904161011 | 81 | 9 | 3.0 | 11.0 | 0.00 | 0.00 | 0.00 | 57 | 1010.8 |
| 20260904160518 | 81 | 291 | 1.0 | 11.0 | 0.00 | 0.00 | 0.00 | 57 | 1010.8 |
| 20260904160034 | 80 | 340 | 4.0 | 15.0 | 0.00 | 0.00 | 0.00 | 59 | 1010.9 |
| 20260904155512 | 80 | 50 | 8.0 | 15.0 | 0.00 | 0.00 | 0.00 | 56 | 1011.0 |
| 20260904155019 | 80 | 31 | 6.0 | 14.0 | 0.00 | 0.00 | 0.00 | 60 | 1011.1 |
| 20260904154527 | 80 | 33 | 6.0 | 15.0 | 0.00 | 0.00 | 0.00 | 61 | 1011.1 |
| 20260904154010 | 79 | 26 | 8.0 | 21.0 | 0.00 | 0.00 | 0.00 | 58 | 1011.1 |
| 20260904153506 | 80 | 292 | 4.0 | 21.0 | 0.00 | 0.00 | 0.00 | 63 | 1011.1 |
| 20260904153019 | 79 | 44 | 6.0 | 16.0 | 0.00 | 0.00 | 0.00 | 62 | 1011.2 |
| 20260904152511 | 79 | 205 | 2.0 | 16.0 | 0.00 | 0.00 | 0.00 | 62 | 1011.2 |
| 20260904152011 | 79 | 49 | 6.0 | 16.0 | 0.00 | 0.00 | 0.00 | 64 | 1011.3 |
| 20260904151524 | 78 | 302 | 6.0 | 15.0 | 0.00 | 0.00 | 0.00 | 65 | 1011.5 |
| 20260904151014 | 78 | 15 | 6.0 | 13.0 | 0.00 | 0.00 | 0.00 | 71 | 1011.5 |
| 20260904150517 | 77 | 234 | 4.0 | 13.0 | 0.00 | 0.00 | 0.00 | 69 | 1011.5 |
| 20260904150039 | 76 | 325 | 4.0 | 11.0 | 0.00 | 0.00 | 0.00 | 74 | 1011.4 |
| 20260904145513 | 75 | 330 | 3.0 | 9.0 | 0.00 | 0.00 | 0.00 | 81 | 1011.5 |
| 20260904145014 | 75 | 265 | 2.0 | 6.0 | 0.00 | 0.00 | 0.00 | 82 | 1011.4 |
| 20260904144532 | 74 | 146 | 2.0 | 5.0 | 0.00 | 0.00 | 0.00 | 80 | 1011.5 |
| 20260904144013 | 74 | 68 | 1.0 | 7.0 | 0.00 | 0.00 | 0.00 | 81 | 1011.5 |
| 20260904143514 | 73 | 38 | 3.0 | 7.0 | 0.00 | 0.00 | 0.00 | 84 | 1011.5 |
| 20260904143028 | 72 | 61 | 2.0 | 6.0 | 0.00 | 0.00 | 0.00 | 84 | 1011.6 |
| 20260904142508 | 72 | 51 | 3.0 | 6.0 | 0.00 | 0.00 | 0.00 | 84 | 1011.7 |
| 20260904142006 | 71 | 56 | 2.0 | 5.0 | 0.00 | 0.00 | 0.00 | 84 | 1011.6 |
| 20260904141527 | 71 | 85 | 2.0 | 4.0 | 0.00 | 0.00 | 0.00 | 86 | 1011.7 |
| 20260904141012 | 70 | 34 | 1.0 | 4.0 | 0.00 | 0.00 | 0.00 | 90 | 1011.6 |
| 20260904140512 | 69 | 93 | 1.0 | 3.0 | 0.00 | 0.00 | 0.00 | 91 | 1011.7 |
| 20260904140032 | 68 | 41 | 1.0 | 3.0 | 0.00 | 0.00 | 0.00 | 93 | 1011.7 |
| 20260904135512 | 68 | 119 | 1.0 | 4.0 | 0.00 | 0.00 | 0.00 | 95 | 1011.8 |
| 20260904135016 | 67 | 137 | 2.0 | 6.0 | 0.00 | 0.00 | 0.00 | 94 | 1011.9 |
| 20260904134531 | 67 | 51 | 1.0 | 6.0 | 0.00 | 0.00 | 0.00 | 95 | 1011.9 |
| 20260904134013 | 66 | 93 | 3.0 | 6.0 | 0.00 | 0.00 | 0.00 | 95 | 1011.8 |
| 20260904133517 | 66 | 328 | 2.0 | 4.0 | 0.00 | 0.00 | 0.00 | 95 | 1011.9 |
| 20260904133032 | 65 | 51 | 1.0 | 4.0 | 0.00 | 0.00 | 0.00 | 96 | 1011.9 |
| 20260904132517 | 65 | 76 | 2.0 | 5.0 | 0.00 | 0.00 | 0.00 | 95 | 1011.9 |
| 20260904132006 | 64 | 325 | 1.0 | 5.0 | 0.00 | 0.00 | 0.00 | 95 | 1011.9 |
| 20260904131519 | 63 | 9 | 1.0 | 6.0 | 0.00 | 0.00 | 0.00 | 95 | 1011.8 |
| 20260904131016 | 64 | 68 | 2.0 | 6.0 | 0.00 | 0.00 | 0.00 | 95 | 1011.8 |
| 20260904130512 | 64 | 48 | 4.0 | 6.0 | 0.00 | 0.00 | 0.00 | 95 | 1011.8 |
| 20260904130029 | 63 | 68 | 3.0 | 6.0 | 0.00 | 0.00 | 0.00 | 95 | 1011.9 |
| 20260904125504 | 63 | 78 | 2.0 | 6.0 | 0.00 | 0.00 | 0.00 | 95 | 1011.9 |
| 20260904125004 | 63 | 41 | 4.0 | 6.0 | 0.00 | 0.00 | 0.00 | 95 | 1011.9 |
| 20260904124506 | 63 | 41 | 2.0 | 6.0 | 0.00 | 0.00 | 0.00 | 95 | 1011.9 |
| 20260904124002 | 63 | 47 | 2.0 | 6.0 | 0.00 | 0.00 | 0.00 | 95 | 1011.9 |
| 20260904123508 | 63 | 22 | 1.0 | 4.0 | 0.00 | 0.00 | 0.00 | 95 | 1011.9 |
| 20260904123011 | 63 | 38 | 1.0 | 3.0 | 0.00 | 0.00 | 0.00 | 95 | 1011.9 |
| 20260904122512 | 63 | 9 | 1.0 | 3.0 | 0.00 | 0.00 | 0.00 | 95 | 1011.8 |
| 20260904122007 | 62 | 9 | 0.0 | 4.0 | 0.00 | 0.00 | 0.00 | 95 | 1011.8 |
| 20260904121517 | 62 | 115 | 2.0 | 4.0 | 0.00 | 0.00 | 0.00 | 95 | 1011.8 |
| 20260904121009 | 62 | 168 | 1.0 | 3.0 | 0.00 | 0.00 | 0.00 | 95 | 1011.7 |
| 20260904120509 | 62 | 51 | 0.0 | 3.0 | 0.00 | 0.00 | 0.00 | 95 | 1011.7 |
| 20260904120024 | 62 | 221 | 1.0 | 5.0 | 0.00 | 0.00 | 0.00 | 95 | 1011.6 |
| 20260904115512 | 62 | 325 | 1.0 | 5.0 | 0.00 | 0.00 | 0.00 | 94 | 1011.6 |
| 20260904115010 | 61 | 68 | 2.0 | 5.0 | 0.00 | 0.00 | 0.00 | 95 | 1011.5 |
| 20260904114530 | 61 | 336 | 2.0 | 5.0 | 0.00 | 0.00 | 0.00 | 95 | 1011.5 |
| 20260904114002 | 61 | 44 | 2.0 | 3.0 | 0.00 | 0.00 | 0.00 | 95 | 1011.5 |
| 20260904113505 | 61 | 26 | 1.0 | 5.0 | 0.00 | 0.00 | 0.00 | 94 | 1011.5 |
| 20260904113006 | 61 | 22 | 2.0 | 5.0 | 0.00 | 0.00 | 0.00 | 94 | 1011.6 |
| 20260904112512 | 61 | 47 | 3.0 | 5.0 | 0.00 | 0.00 | 0.00 | 94 | 1011.5 |
| 20260904112007 | 61 | 9 | 1.0 | 4.0 | 0.00 | 0.00 | 0.00 | 94 | 1011.5 |
| 20260904111514 | 61 | 51 | 0.0 | 4.0 | 0.00 | 0.00 | 0.00 | 94 | 1011.5 |
| 20260904111005 | 61 | 19 | 3.0 | 6.0 | 0.00 | 0.00 | 0.00 | 94 | 1011.6 |
| 20260904110505 | 61 | 9 | 2.0 | 6.0 | 0.00 | 0.00 | 0.00 | 94 | 1011.5 |
| 20260904110019 | 61 | 325 | 1.0 | 3.0 | 0.00 | 0.00 | 0.00 | 94 | 1011.5 |
| 20260904105517 | 61 | 24 | 1.0 | 3.0 | 0.00 | 0.00 | 0.00 | 94 | 1011.5 |
| 20260904105011 | 61 | 338 | 0.0 | 2.0 | 0.00 | 0.00 | 0.00 | 94 | 1011.5 |
| 20260904104524 | 61 | 9 | 0.0 | 3.0 | 0.00 | 0.00 | 0.00 | 94 | 1011.4 |
| 20260904104016 | 61 | 9 | 0.0 | 4.0 | 0.00 | 0.00 | 0.00 | 94 | 1011.4 |
| 20260904103519 | 61 | 9 | 1.0 | 4.0 | 0.00 | 0.00 | 0.00 | 94 | 1011.5 |
| 20260904103036 | 61 | 56 | 2.0 | 4.0 | 0.00 | 0.00 | 0.00 | 94 | 1011.4 |
| 20260904102512 | 61 | 41 | 2.0 | 3.0 | 0.00 | 0.00 | 0.00 | 94 | 1011.3 |
| 20260904102003 | 61 | 9 | 1.0 | 3.0 | 0.00 | 0.00 | 0.00 | 94 | 1011.2 |
| 20260904101510 | 61 | 9 | 1.0 | 4.0 | 0.00 | 0.00 | 0.00 | 94 | 1011.2 |
| 20260904101009 | 61 | 30 | 1.0 | 4.0 | 0.00 | 0.00 | 0.00 | 94 | 1011.1 |
| 20260904100510 | 61 | 38 | 1.0 | 5.0 | 0.00 | 0.00 | 0.00 | 94 | 1011.0 |
| 20260904100014 | 61 | 26 | 2.0 | 5.0 | 0.00 | 0.00 | 0.00 | 94 | 1011.0 |
| 20260904095517 | 62 | 49 | 3.0 | 5.0 | 0.00 | 0.00 | 0.00 | 94 | 1011.0 |
| 20260904095011 | 62 | 48 | 2.0 | 4.0 | 0.00 | 0.00 | 0.00 | 94 | 1010.9 |
| 20260904094518 | 62 | 34 | 2.0 | 4.0 | 0.00 | 0.00 | 0.00 | 94 | 1011.0 |
| 20260904094009 | 62 | 61 | 1.0 | 4.0 | 0.00 | 0.00 | 0.00 | 94 | 1011.0 |
| 20260904093513 | 62 | 22 | 1.0 | 4.0 | 0.00 | 0.00 | 0.00 | 94 | 1011.0 |
| 20260904093032 | 62 | 55 | 2.0 | 4.0 | 0.00 | 0.00 | 0.00 | 94 | 1011.0 |
| 20260904092514 | 62 | 61 | 1.0 | 4.0 | 0.00 | 0.00 | 0.00 | 94 | 1011.0 |
| 20260904092011 | 62 | 36 | 2.0 | 4.0 | 0.00 | 0.00 | 0.00 | 94 | 1011.0 |